ROMMA est une association bénévole à but non lucratif. Votre soutien est indispensable : ADHERER à ROMMA ou FAIRE un DON

Le Versoud - (38, Isère)

Vallée du Grésivaudan (220 m)   Longitude: 05° 51' 44" E   Latitude: 45° 13' 06" N Station partenaire n°6
 

Détail journalier du     <<     >>

Température Humidité Pression Vent Dir Rafale Dir. rafale Ensol.
Heure (°C) (%) (hPa) (km/h) (km/h) (min)
01:00 22.678101500---0
02:00 21.979101500---0
03:00 21.678101600---0
04:00 21.082101600---0
05:00 20.285101600---0
06:00 19.785101600---0
07:00 19.886101600---0
08:00 22.278101700---35
09:00 23.373101702NE60
10:00 24.667101703ENE60
11:00 25.962101705ENE60
12:00 28.058101703E60
13:00 28.355101603ENE40
14:00 29.952101606NNO10
15:00 30.750101503NNO60
16:00 31.447101505NO60
17:00 31.948101506NNO60
18:00 32.14710141N15N60
19:00 31.45010142NE15N60
20:00 30.94910141NNE11NE60
21:00 28.8531015011NNE25
22:00 26.662101505ENE0
23:00 24.871101600---0
minuit 23.673101600---0

Graphique du 04-07-2019

 

Serveur OMMA